Port Richmond — WDH2442 — position and weather

sailwx.info

Track history (hours):
 
Tides and Currents Weather Stations Pressure Air Temp Water Temp Dewpoint Dewpoint Depression Visibility Wind Speed Wind Dir Waves Ship Positions

Port Richmond

Owner: NEW YORK, CITY OF, BROOKLYN, NY. More information available from US FCC via Universal Licensing System and Coast Guard Vessel Documentation Center.

Last reported at 2017-Oct-20 16:00 UTC. Time now 2017-Oct-20 16:11 UTC.
Position N 40°44' W 073°57'.

Length 89 m; draft 5 m.

Type: Tanker. MMSI: 367597640.

Date/timePositionNaut miles runAvg speedWind from/ knotsBaromVisibWave heightAir tempDewpointWater temp
2017-Oct-20 16:00N 40°44' W 073°57'0 0.4
2017-Oct-20 15:30N 40°44' W 073°57'0 0.0
2017-Oct-20 15:00N 40°44' W 073°57'0 0.0
2017-Oct-20 13:59N 40°44' W 073°57'0 0.0
2017-Oct-20 13:30N 40°44' W 073°57'0 0.2
2017-Oct-20 13:00N 40°44' W 073°57'1 0.1
2017-Oct-19 20:37N 40°45' W 073°57'1 9.9
2017-Oct-19 20:30N 40°44' W 073°58'1 2.1
2017-Oct-19 20:00N 40°44' W 073°57'0 0.0
2017-Oct-19 19:30N 40°44' W 073°57'0 0.0
2017-Oct-19 19:00N 40°44' W 073°57'0 0.0
2017-Oct-19 18:29N 40°44' W 073°57'0 0.0
2017-Oct-19 17:59N 40°44' W 073°57'0 0.0
2017-Oct-19 17:30N 40°44' W 073°57'0 0.0
2017-Oct-19 16:59N 40°44' W 073°57'0 0.0
2017-Oct-19 16:25N 40°44' W 073°57'0 0.0
2017-Oct-19 15:59N 40°44' W 073°57'0 0.0
2017-Oct-19 15:29N 40°44' W 073°57'0 0.0
2017-Oct-19 15:00N 40°44' W 073°57'0 0.0
2017-Oct-19 14:29N 40°44' W 073°57'0 0.0
2017-Oct-19 13:55N 40°44' W 073°57'0 0.0
2017-Oct-19 13:30N 40°44' W 073°57'0 0.0
2017-Oct-19 13:00N 40°44' W 073°57'0 0.0
2017-Oct-19 12:29N 40°44' W 073°57'0 0.0
2017-Oct-19 12:00N 40°44' W 073°57'0 0.0
2017-Oct-19 11:29N 40°44' W 073°57'0 0.0
2017-Oct-19 10:58N 40°44' W 073°57'0 0.0
2017-Oct-19 10:30N 40°44' W 073°57'0 0.0
2017-Oct-19 09:57N 40°44' W 073°57'0 0.0
2017-Oct-19 09:27N 40°44' W 073°57'0 0.0
2017-Oct-19 09:00N 40°44' W 073°57'0 0.0
2017-Oct-19 08:30N 40°44' W 073°57'0 0.0
2017-Oct-19 08:00N 40°44' W 073°57'0 0.0
2017-Oct-19 07:30N 40°44' W 073°57'0 0.0
2017-Oct-19 07:00N 40°44' W 073°57'0 0.0
2017-Oct-19 06:30N 40°44' W 073°57'0 0.0
2017-Oct-19 05:59N 40°44' W 073°57'0 0.0
2017-Oct-19 05:30N 40°44' W 073°57'0 0.0
2017-Oct-19 04:58N 40°44' W 073°57'0 0.0
2017-Oct-19 04:30N 40°44' W 073°57'0 0.0
2017-Oct-19 04:00N 40°44' W 073°57'0 0.0
2017-Oct-19 03:30N 40°44' W 073°57'0 0.0
2017-Oct-19 03:00N 40°44' W 073°57'0 0.0
2017-Oct-19 02:30N 40°44' W 073°57'0 0.0
2017-Oct-19 01:59N 40°44' W 073°57'0 0.0
2017-Oct-19 01:17N 40°44' W 073°57'0 0.0
2017-Oct-19 00:24N 40°44' W 073°57'0 0.0
2017-Oct-19 00:00N 40°44' W 073°57'0 0.0
2017-Oct-18 23:22N 40°44' W 073°57'0 0.0
2017-Oct-18 22:57N 40°44' W 073°57'0 0.0
2017-Oct-18 22:30N 40°44' W 073°57'0 0.0
2017-Oct-18 22:00N 40°44' W 073°57'0 0.0
2017-Oct-18 21:30N 40°44' W 073°57'0 0.0
2017-Oct-18 21:00N 40°44' W 073°57'0 0.0
2017-Oct-18 20:30N 40°44' W 073°57'0 0.0
2017-Oct-18 20:00N 40°44' W 073°57'1 1.8
2017-Oct-18 19:30N 40°44' W 073°58'4 7.0
2017-Oct-18 19:00N 40°41' W 074°01'5 9.1
2017-Oct-18 18:30N 40°39' W 074°06'3 5.1
2017-Oct-18 18:00N 40°41' W 074°08'2 3.7
2017-Oct-18 17:30N 40°43' W 074°07'0 0.0
2017-Oct-18 17:00N 40°43' W 074°07'0 0.0
2017-Oct-18 16:30N 40°43' W 074°07'0 0.0
2017-Oct-18 16:00N 40°43' W 074°07'1 1.4
2017-Oct-18 15:30N 40°42' W 074°07'3 6.9
2017-Oct-18 15:00N 40°39' W 074°08'9 9.0
2017-Oct-18 14:00N 40°44' W 073°58'1 2.1
2017-Oct-18 13:28N 40°44' W 073°57'0 0.0
2017-Oct-18 13:00N 40°44' W 073°57'0 0.0
2017-Oct-18 12:30N 40°44' W 073°57'0 0.0
2017-Oct-18 12:00N 40°44' W 073°57'0 0.0
2017-Oct-18 11:30N 40°44' W 073°57'0 0.0
2017-Oct-18 11:00N 40°44' W 073°57'0 0.0
2017-Oct-18 10:30N 40°44' W 073°57'0 0.0
2017-Oct-18 10:00N 40°44' W 073°57'0 0.0
2017-Oct-18 09:30N 40°44' W 073°57'0 0.0
2017-Oct-18 09:00N 40°44' W 073°57'0 0.0
2017-Oct-18 08:30N 40°44' W 073°57'0 0.0
2017-Oct-18 08:00N 40°44' W 073°57'0 0.0
2017-Oct-18 07:30N 40°44' W 073°57'0 0.0
2017-Oct-18 07:00N 40°44' W 073°57'0 0.0
2017-Oct-18 06:30N 40°44' W 073°57'0 0.0
2017-Oct-18 06:00N 40°44' W 073°57'0 0.0
2017-Oct-18 05:30N 40°44' W 073°57'0 0.0
2017-Oct-18 05:00N 40°44' W 073°57'0 0.0
2017-Oct-18 04:30N 40°44' W 073°57'0 0.0
2017-Oct-18 04:00N 40°44' W 073°57'0 0.0
2017-Oct-18 03:30N 40°44' W 073°57'0 0.0
2017-Oct-18 03:00N 40°44' W 073°57'0 0.0
2017-Oct-18 02:30N 40°44' W 073°57'0 0.0
2017-Oct-18 02:00N 40°44' W 073°57'0 0.0
2017-Oct-18 01:30N 40°44' W 073°57'0 0.0
2017-Oct-18 01:00N 40°44' W 073°57'0 0.0
2017-Oct-18 00:30N 40°44' W 073°57'0 0.0
2017-Oct-18 00:00N 40°44' W 073°57'0 0.0
2017-Oct-17 23:30N 40°44' W 073°57'0 0.0
2017-Oct-17 23:00N 40°44' W 073°57'0 0.0
2017-Oct-17 22:30N 40°44' W 073°57'0 0.0
2017-Oct-17 22:00N 40°44' W 073°57'0 0.0
2017-Oct-17 21:30N 40°44' W 073°57'0 0.0
2017-Oct-17 21:00N 40°44' W 073°57'0 0.0
2017-Oct-17 20:30N 40°44' W 073°57'0 0.0
2017-Oct-17 20:00N 40°44' W 073°57'0 0.8
2017-Oct-17 19:30N 40°44' W 073°57'4 8.0
2017-Oct-17 19:00N 40°41' W 074°01'4 9.0
2017-Oct-17 18:30N 40°39' W 074°06'3 5.4
2017-Oct-17 18:00N 40°41' W 074°08'2 3.4
2017-Oct-17 17:30N 40°43' W 074°07'0 0.0
2017-Oct-17 17:01N 40°43' W 074°07'0 0.0
2017-Oct-17 16:30N 40°43' W 074°07'0 0.0
2017-Oct-17 16:00N 40°43' W 074°07'1 2.4
2017-Oct-17 15:31N 40°42' W 074°07'3 5.8
2017-Oct-17 15:00N 40°39' W 074°07'4 8.3
2017-Oct-17 14:30N 40°40' W 074°03'510.4
2017-Oct-17 14:01N 40°44' W 073°58'1 1.6
2017-Oct-17 13:30N 40°44' W 073°57'0 0.0
2017-Oct-17 13:00N 40°44' W 073°57'0 0.0
2017-Oct-17 12:30N 40°44' W 073°57'0 0.0
2017-Oct-17 12:00N 40°44' W 073°57'0 0.0
2017-Oct-17 11:30N 40°44' W 073°57'0 0.0
2017-Oct-17 11:00N 40°44' W 073°57'0 0.0
2017-Oct-17 10:30N 40°44' W 073°57'0 0.0
2017-Oct-17 10:00N 40°44' W 073°57'0 0.0
2017-Oct-17 09:29N 40°44' W 073°57'0 0.0
2017-Oct-17 09:00N 40°44' W 073°57'0 0.0
2017-Oct-17 08:30N 40°44' W 073°57'0 0.0
2017-Oct-17 08:00N 40°44' W 073°57'0 0.0
2017-Oct-17 07:30N 40°44' W 073°57'0 0.0
2017-Oct-17 07:00N 40°44' W 073°57'0 0.0
2017-Oct-17 06:30N 40°44' W 073°57'0 0.0
2017-Oct-17 06:00N 40°44' W 073°57'0 0.0
2017-Oct-17 05:30N 40°44' W 073°57'0 0.0
2017-Oct-17 04:59N 40°44' W 073°57'0 0.0
2017-Oct-17 04:30N 40°44' W 073°57'0 0.0
2017-Oct-17 04:00N 40°44' W 073°57'0 0.0
2017-Oct-17 03:30N 40°44' W 073°57'0 0.0
2017-Oct-17 03:00N 40°44' W 073°57'0 0.0
2017-Oct-17 02:30N 40°44' W 073°57'0 0.0
2017-Oct-17 01:58N 40°44' W 073°57'0 0.0
2017-Oct-17 01:17N 40°44' W 073°57'0 0.0
2017-Oct-17 01:00N 40°44' W 073°57'0 0.0
2017-Oct-17 00:30N 40°44' W 073°57'0 0.0
2017-Oct-16 23:59N 40°44' W 073°57'0 0.0
2017-Oct-16 23:30N 40°44' W 073°57'0 0.0
2017-Oct-16 23:00N 40°44' W 073°57'0 0.0
2017-Oct-16 22:30N 40°44' W 073°57'0 0.0
2017-Oct-16 21:59N 40°44' W 073°57'0 0.0
2017-Oct-16 21:30N 40°44' W 073°57'0 0.1
2017-Oct-16 20:59N 40°44' W 073°57'1 2.6
2017-Oct-16 20:30N 40°43' W 073°58'3 5.6
2017-Oct-16 20:00N 40°41' W 074°01'4 8.8
2017-Oct-16 19:30N 40°39' W 074°05'2 5.0
2017-Oct-16 19:00N 40°40' W 074°08'3 5.8
2017-Oct-16 18:30N 40°43' W 074°07'0 0.0
2017-Oct-16 18:00N 40°43' W 074°07'0 0.0
2017-Oct-16 17:30N 40°43' W 074°07'0 0.0
2017-Oct-16 17:00N 40°43' W 074°07'0 0.1
2017-Oct-16 16:30N 40°43' W 074°07'4 7.6
2017-Oct-16 16:00N 40°39' W 074°09'4 7.4
2017-Oct-16 15:31N 40°39' W 074°04'611.6
2017-Oct-16 15:00N 40°43' W 073°58'2 3.1
2017-Oct-16 14:30N 40°44' W 073°57'0 0.0
2017-Oct-16 13:30N 40°44' W 073°57'0 0.0
2017-Oct-16 12:57N 40°44' W 073°57'0 0.0
2017-Oct-16 12:30N 40°44' W 073°57'1 1.5
2017-Oct-16 12:00N 40°44' W 073°58'2 0.0
2017-Oct-14 21:15N 40°46' W 073°57'2 9.3
2017-Oct-14 21:00N 40°43' W 073°58'4 8.6
2017-Oct-14 20:30N 40°41' W 074°02'4 8.6
2017-Oct-14 19:59N 40°39' W 074°07'3 5.5
2017-Oct-14 19:30N 40°41' W 074°08'1 2.9
2017-Oct-14 19:00N 40°43' W 074°07'0 0.0
2017-Oct-14 18:30N 40°43' W 074°07'0 0.0
2017-Oct-14 18:00N 40°43' W 074°07'0 0.0
2017-Oct-14 17:29N 40°43' W 074°07'1 2.9
2017-Oct-14 17:00N 40°41' W 074°08'0 0.8
2017-Oct-14 16:29N 40°42' W 074°07'0 0.0
2017-Oct-14 16:00N 40°42' W 074°07'1 1.6
2017-Oct-14 15:30N 40°41' W 074°08'3 4.7
2017-Oct-14 14:56N 40°39' W 074°06'4 9.8
2017-Oct-14 14:30N 40°41' W 074°01'4 8.9
2017-Oct-14 14:00N 40°44' W 073°57'0 0.6
2017-Oct-14 13:30N 40°44' W 073°57'0 0.0
2017-Oct-14 13:00N 40°44' W 073°57'0 0.0
2017-Oct-14 12:30N 40°44' W 073°57'0 0.0
2017-Oct-14 11:58N 40°44' W 073°57'0 0.0
2017-Oct-14 11:30N 40°44' W 073°57'0 0.0
2017-Oct-14 11:00N 40°44' W 073°57'0 0.0
2017-Oct-14 10:27N 40°44' W 073°57'0 0.0
2017-Oct-14 09:57N 40°44' W 073°57'0 0.0
2017-Oct-14 09:31N 40°44' W 073°57'0 0.0
2017-Oct-14 08:59N 40°44' W 073°57'0 0.0
2017-Oct-14 08:30N 40°44' W 073°57'0 0.0
2017-Oct-14 08:00N 40°44' W 073°57'0 0.0
2017-Oct-14 07:28N 40°44' W 073°57'0 0.0
2017-Oct-14 07:01N 40°44' W 073°57'0 0.0
2017-Oct-14 06:30N 40°44' W 073°57'0 0.0
2017-Oct-14 05:59N 40°44' W 073°57'0 0.0
2017-Oct-14 05:30N 40°44' W 073°57'0 0.0
2017-Oct-14 05:00N 40°44' W 073°57'0 0.0
2017-Oct-14 04:29N 40°44' W 073°57'0 0.0
2017-Oct-14 03:49N 40°44' W 073°57'0 0.0
2017-Oct-14 03:30N 40°44' W 073°57'0 0.0
2017-Oct-14 02:59N 40°44' W 073°57'0 0.0
2017-Oct-14 02:30N 40°44' W 073°57'0 0.0
2017-Oct-14 02:00N 40°44' W 073°57'0 0.0
2017-Oct-14 01:29N 40°44' W 073°57'0 0.0
2017-Oct-14 00:59N 40°44' W 073°57'0 0.0
2017-Oct-14 00:19N 40°44' W 073°57'0 0.0
2017-Oct-13 23:51N 40°44' W 073°57'0 0.0
2017-Oct-13 23:29N 40°44' W 073°57'0 0.0
2017-Oct-13 22:58N 40°44' W 073°57'0 0.0
2017-Oct-13 22:00N 40°44' W 073°57'0 0.0
2017-Oct-13 21:29N 40°44' W 073°57'0 0.0
2017-Oct-13 20:59N 40°44' W 073°57'1 1.0
2017-Oct-13 20:29N 40°44' W 073°57'1 2.0
2017-Oct-13 20:00N 40°44' W 073°58'4 8.2
2017-Oct-13 19:30N 40°41' W 074°02'5 9.5
2017-Oct-13 19:00N 40°39' W 074°08'4 7.4
2017-Oct-13 18:30N 40°42' W 074°07'1 1.0
2017-Oct-13 18:00N 40°43' W 074°07'0 0.0
2017-Oct-13 17:30N 40°43' W 074°07'0 0.0
2017-Oct-13 17:00N 40°43' W 074°07'0 0.0
2017-Oct-13 16:30N 40°43' W 074°07'2 3.2
2017-Oct-13 16:00N 40°41' W 074°08'1 1.2
2017-Oct-13 15:30N 40°41' W 074°08'2 3.9
2017-Oct-13 15:00N 40°39' W 074°07'510.0
2017-Oct-13 14:30N 40°41' W 074°01'4 8.6
2017-Oct-13 14:00N 40°44' W 073°57'1 1.0
2017-Oct-13 13:30N 40°44' W 073°57'0 0.0
2017-Oct-13 13:00N 40°44' W 073°57'0 0.0
2017-Oct-13 12:30N 40°44' W 073°57'0 0.0
2017-Oct-13 12:00N 40°44' W 073°57'0 0.0
2017-Oct-13 11:30N 40°44' W 073°57'0 0.0
2017-Oct-13 11:00N 40°44' W 073°57'0 0.0
2017-Oct-13 10:30N 40°44' W 073°57'0 0.0
2017-Oct-13 10:00N 40°44' W 073°57'0 0.0
2017-Oct-13 09:30N 40°44' W 073°57'0 0.0
2017-Oct-13 09:00N 40°44' W 073°57'0 0.0
2017-Oct-13 08:30N 40°44' W 073°57'0 0.0
2017-Oct-13 08:00N 40°44' W 073°57'0 0.0
2017-Oct-13 07:30N 40°44' W 073°57'0 0.0
2017-Oct-13 07:00N 40°44' W 073°57'0 0.0
2017-Oct-13 06:30N 40°44' W 073°57'0 0.0
2017-Oct-13 06:00N 40°44' W 073°57'0 0.0
2017-Oct-13 05:30N 40°44' W 073°57'0 0.0
2017-Oct-13 05:00N 40°44' W 073°57'0 0.0
2017-Oct-13 04:29N 40°44' W 073°57'0 0.0
2017-Oct-13 04:00N 40°44' W 073°57'0 0.0
2017-Oct-13 03:30N 40°44' W 073°57'0 0.0
2017-Oct-13 03:00N 40°44' W 073°57'0 0.0
2017-Oct-13 02:30N 40°44' W 073°57'0 0.0
2017-Oct-13 02:00N 40°44' W 073°57'0 0.0
2017-Oct-13 01:29N 40°44' W 073°57'0 0.0
2017-Oct-13 01:00N 40°44' W 073°57'0 0.0
2017-Oct-13 00:30N 40°44' W 073°57'0 0.0
2017-Oct-13 00:00N 40°44' W 073°57'0 0.0
2017-Oct-12 23:30N 40°44' W 073°57'0 0.0
2017-Oct-12 23:00N 40°44' W 073°57'0 0.0
2017-Oct-12 22:29N 40°44' W 073°57'0 0.0
2017-Oct-12 21:58N 40°44' W 073°57'0 0.0
2017-Oct-12 21:30N 40°44' W 073°57'0 0.0
2017-Oct-12 21:00N 40°44' W 073°57'0 0.0
2017-Oct-12 20:30N 40°44' W 073°57'0 0.8
2017-Oct-12 20:00N 40°44' W 073°57'1 2.8
2017-Oct-12 19:30N 40°43' W 073°58'2 3.5
2017-Oct-12 19:00N 40°42' W 074°00'5 9.8
2017-Oct-12 18:29N 40°39' W 074°05'3 5.3
2017-Oct-12 18:00N 40°40' W 074°09'3 6.1
2017-Oct-12 17:30N 40°43' W 074°07'0 0.0
2017-Oct-12 17:00N 40°43' W 074°07'0 0.0
2017-Oct-12 16:30N 40°43' W 074°07'0 0.0
2017-Oct-12 16:00N 40°43' W 074°07'1 1.5
2017-Oct-12 15:30N 40°42' W 074°07'3 6.8
2017-Oct-12 15:00N 40°39' W 074°07'5 9.6
2017-Oct-12 14:30N 40°41' W 074°02'4 8.2
2017-Oct-12 14:00N 40°44' W 073°58'1 2.0
2017-Oct-12 13:30N 40°44' W 073°57'0 0.0
2017-Oct-12 12:59N 40°44' W 073°57'0 0.0
2017-Oct-12 12:30N 40°44' W 073°57'0 0.0
2017-Oct-12 12:00N 40°44' W 073°57'0 0.0
2017-Oct-12 11:30N 40°44' W 073°57'0 0.0
2017-Oct-12 10:59N 40°44' W 073°57'0 0.0
2017-Oct-12 10:30N 40°44' W 073°57'0 0.0
2017-Oct-12 10:00N 40°44' W 073°57'0 0.0
2017-Oct-12 09:29N 40°44' W 073°57'0 0.0
2017-Oct-12 09:00N 40°44' W 073°57'0 0.0
2017-Oct-12 08:30N 40°44' W 073°57'0 0.0
2017-Oct-12 08:00N 40°44' W 073°57'0 0.0
2017-Oct-12 07:30N 40°44' W 073°57'0 0.0
2017-Oct-12 07:00N 40°44' W 073°57'0 0.0
2017-Oct-12 06:30N 40°44' W 073°57'0 0.0
2017-Oct-12 06:00N 40°44' W 073°57'0 0.0
2017-Oct-12 05:30N 40°44' W 073°57'0 0.0
2017-Oct-12 05:00N 40°44' W 073°57'0 0.0
2017-Oct-12 04:29N 40°44' W 073°57'0 0.0
2017-Oct-12 03:59N 40°44' W 073°57'0 0.0
2017-Oct-12 03:30N 40°44' W 073°57'0 0.0
2017-Oct-12 03:00N 40°44' W 073°57'0 0.0
2017-Oct-12 02:30N 40°44' W 073°57'0 0.0
2017-Oct-12 02:00N 40°44' W 073°57'0 0.0
2017-Oct-12 01:30N 40°44' W 073°57'0 0.0
2017-Oct-12 01:00N 40°44' W 073°57'0 0.0
2017-Oct-12 00:30N 40°44' W 073°57'0 0.0
2017-Oct-12 00:00N 40°44' W 073°57'0 0.0
2017-Oct-11 23:30N 40°44' W 073°57'0 0.0
2017-Oct-11 23:00N 40°44' W 073°57'0 0.0
2017-Oct-11 22:30N 40°44' W 073°57'0 0.0
2017-Oct-11 22:00N 40°44' W 073°57'0 0.0
2017-Oct-11 21:30N 40°44' W 073°57'0 0.0
2017-Oct-11 20:59N 40°44' W 073°57'0 0.0
2017-Oct-11 20:30N 40°44' W 073°57'0 0.0
2017-Oct-11 20:00N 40°44' W 073°57'1 1.8
2017-Oct-11 19:30N 40°44' W 073°58'4 8.6
2017-Oct-11 19:00N 40°41' W 074°02'510.2
2017-Oct-11 18:28N 40°39' W 074°08'4 9.1
2017-Oct-11 18:00N 40°43' W 074°07'0 0.1
2017-Oct-11 17:30N 40°43' W 074°07'0 0.0
2017-Oct-11 17:00N 40°43' W 074°07'8 0.5
2017-Oct-11 00:00N 40°44' W 073°57'0 0.0
2017-Oct-10 23:30N 40°44' W 073°57'0 0.0
2017-Oct-10 23:00N 40°44' W 073°57'0 0.0
2017-Oct-10 22:29N 40°44' W 073°57'0 0.0
2017-Oct-10 22:00N 40°44' W 073°57'0 0.0
2017-Oct-10 21:30N 40°44' W 073°57'0 0.0
2017-Oct-10 21:00N 40°44' W 073°57'0 0.0
2017-Oct-10 20:30N 40°44' W 073°57'0 0.0
2017-Oct-10 20:00N 40°44' W 073°57'2 3.1
2017-Oct-10 19:30N 40°43' W 073°58'4 8.4
2017-Oct-10 19:00N 40°40' W 074°02'510.5
2017-Oct-10 18:30N 40°38' W 074°09'4 8.7
2017-Oct-10 18:00N 40°43' W 074°07'0 0.0
2017-Oct-10 17:30N 40°43' W 074°07'0 0.0
2017-Oct-10 17:00N 40°43' W 074°07'0 0.0
2017-Oct-10 16:30N 40°43' W 074°07'0 0.1
2017-Oct-10 16:00N 40°43' W 074°07'  
Track history (hours):
 
Tides and Currents Weather Stations Pressure Air Temp Water Temp Dewpoint Dewpoint Depression Visibility Wind Speed Wind Dir Waves Ship Positions

Port Richmond

Owner: NEW YORK, CITY OF, BROOKLYN, NY. More information available from US FCC via Universal Licensing System and Coast Guard Vessel Documentation Center.

Last reported at 2017-Oct-20 16:00 UTC. Time now 2017-Oct-20 16:11 UTC.
Position N 40°44' W 073°57'.

Length 89 m; draft 5 m.

Type: Tanker. MMSI: 367597640.

Date/timePositionNaut miles runAvg speedWind from/ knotsBaromVisibWave heightAir tempDewpointWater temp
2017-Oct-20 16:00N 40°44' W 073°57'0 0.4
2017-Oct-20 15:30N 40°44' W 073°57'0 0.0
2017-Oct-20 15:00N 40°44' W 073°57'0 0.0
2017-Oct-20 13:59N 40°44' W 073°57'0 0.0
2017-Oct-20 13:30N 40°44' W 073°57'0 0.2
2017-Oct-20 13:00N 40°44' W 073°57'1 0.1
2017-Oct-19 20:37N 40°45' W 073°57'1 9.9
2017-Oct-19 20:30N 40°44' W 073°58'1 2.1
2017-Oct-19 20:00N 40°44' W 073°57'0 0.0
2017-Oct-19 19:30N 40°44' W 073°57'0 0.0
2017-Oct-19 19:00N 40°44' W 073°57'0 0.0
2017-Oct-19 18:29N 40°44' W 073°57'0 0.0
2017-Oct-19 17:59N 40°44' W 073°57'0 0.0
2017-Oct-19 17:30N 40°44' W 073°57'0 0.0
2017-Oct-19 16:59N 40°44' W 073°57'0 0.0
2017-Oct-19 16:25N 40°44' W 073°57'0 0.0
2017-Oct-19 15:59N 40°44' W 073°57'0 0.0
2017-Oct-19 15:29N 40°44' W 073°57'0 0.0
2017-Oct-19 15:00N 40°44' W 073°57'0 0.0
2017-Oct-19 14:29N 40°44' W 073°57'0 0.0
2017-Oct-19 13:55N 40°44' W 073°57'0 0.0
2017-Oct-19 13:30N 40°44' W 073°57'0 0.0
2017-Oct-19 13:00N 40°44' W 073°57'0 0.0
2017-Oct-19 12:29N 40°44' W 073°57'0 0.0
2017-Oct-19 12:00N 40°44' W 073°57'0 0.0
2017-Oct-19 11:29N 40°44' W 073°57'0 0.0
2017-Oct-19 10:58N 40°44' W 073°57'0 0.0
2017-Oct-19 10:30N 40°44' W 073°57'0 0.0
2017-Oct-19 09:57N 40°44' W 073°57'0 0.0
2017-Oct-19 09:27N 40°44' W 073°57'0 0.0
2017-Oct-19 09:00N 40°44' W 073°57'0 0.0
2017-Oct-19 08:30N 40°44' W 073°57'0 0.0
2017-Oct-19 08:00N 40°44' W 073°57'0 0.0
2017-Oct-19 07:30N 40°44' W 073°57'0 0.0
2017-Oct-19 07:00N 40°44' W 073°57'0 0.0
2017-Oct-19 06:30N 40°44' W 073°57'0 0.0
2017-Oct-19 05:59N 40°44' W 073°57'0 0.0
2017-Oct-19 05:30N 40°44' W 073°57'0 0.0
2017-Oct-19 04:58N 40°44' W 073°57'0 0.0
2017-Oct-19 04:30N 40°44' W 073°57'0 0.0
2017-Oct-19 04:00N 40°44' W 073°57'0 0.0
2017-Oct-19 03:30N 40°44' W 073°57'0 0.0
2017-Oct-19 03:00N 40°44' W 073°57'0 0.0
2017-Oct-19 02:30N 40°44' W 073°57'0 0.0
2017-Oct-19 01:59N 40°44' W 073°57'0 0.0
2017-Oct-19 01:17N 40°44' W 073°57'0 0.0
2017-Oct-19 00:24N 40°44' W 073°57'0 0.0
2017-Oct-19 00:00N 40°44' W 073°57'0 0.0
2017-Oct-18 23:22N 40°44' W 073°57'0 0.0
2017-Oct-18 22:57N 40°44' W 073°57'0 0.0
2017-Oct-18 22:30N 40°44' W 073°57'0 0.0
2017-Oct-18 22:00N 40°44' W 073°57'0 0.0
2017-Oct-18 21:30N 40°44' W 073°57'0 0.0
2017-Oct-18 21:00N 40°44' W 073°57'0 0.0
2017-Oct-18 20:30N 40°44' W 073°57'0 0.0
2017-Oct-18 20:00N 40°44' W 073°57'1 1.8
2017-Oct-18 19:30N 40°44' W 073°58'4 7.0
2017-Oct-18 19:00N 40°41' W 074°01'5 9.1
2017-Oct-18 18:30N 40°39' W 074°06'3 5.1
2017-Oct-18 18:00N 40°41' W 074°08'2 3.7
2017-Oct-18 17:30N 40°43' W 074°07'0 0.0
2017-Oct-18 17:00N 40°43' W 074°07'0 0.0
2017-Oct-18 16:30N 40°43' W 074°07'0 0.0
2017-Oct-18 16:00N 40°43' W 074°07'1 1.4
2017-Oct-18 15:30N 40°42' W 074°07'3 6.9
2017-Oct-18 15:00N 40°39' W 074°08'9 9.0
2017-Oct-18 14:00N 40°44' W 073°58'1 2.1
2017-Oct-18 13:28N 40°44' W 073°57'0 0.0
2017-Oct-18 13:00N 40°44' W 073°57'0 0.0
2017-Oct-18 12:30N 40°44' W 073°57'0 0.0
2017-Oct-18 12:00N 40°44' W 073°57'0 0.0
2017-Oct-18 11:30N 40°44' W 073°57'0 0.0
2017-Oct-18 11:00N 40°44' W 073°57'0 0.0
2017-Oct-18 10:30N 40°44' W 073°57'0 0.0
2017-Oct-18 10:00N 40°44' W 073°57'0 0.0
2017-Oct-18 09:30N 40°44' W 073°57'0 0.0
2017-Oct-18 09:00N 40°44' W 073°57'0 0.0
2017-Oct-18 08:30N 40°44' W 073°57'0 0.0
2017-Oct-18 08:00N 40°44' W 073°57'0 0.0
2017-Oct-18 07:30N 40°44' W 073°57'0 0.0
2017-Oct-18 07:00N 40°44' W 073°57'0 0.0
2017-Oct-18 06:30N 40°44' W 073°57'0 0.0
2017-Oct-18 06:00N 40°44' W 073°57'0 0.0
2017-Oct-18 05:30N 40°44' W 073°57'0 0.0
2017-Oct-18 05:00N 40°44' W 073°57'0 0.0
2017-Oct-18 04:30N 40°44' W 073°57'0 0.0
2017-Oct-18 04:00N 40°44' W 073°57'0 0.0
2017-Oct-18 03:30N 40°44' W 073°57'0 0.0
2017-Oct-18 03:00N 40°44' W 073°57'0 0.0
2017-Oct-18 02:30N 40°44' W 073°57'0 0.0
2017-Oct-18 02:00N 40°44' W 073°57'0 0.0
2017-Oct-18 01:30N 40°44' W 073°57'0 0.0
2017-Oct-18 01:00N 40°44' W 073°57'0 0.0
2017-Oct-18 00:30N 40°44' W 073°57'0 0.0
2017-Oct-18 00:00N 40°44' W 073°57'0 0.0
2017-Oct-17 23:30N 40°44' W 073°57'0 0.0
2017-Oct-17 23:00N 40°44' W 073°57'0 0.0
2017-Oct-17 22:30N 40°44' W 073°57'0 0.0
2017-Oct-17 22:00N 40°44' W 073°57'0 0.0
2017-Oct-17 21:30N 40°44' W 073°57'0 0.0
2017-Oct-17 21:00N 40°44' W 073°57'0 0.0
2017-Oct-17 20:30N 40°44' W 073°57'0 0.0
2017-Oct-17 20:00N 40°44' W 073°57'0 0.8
2017-Oct-17 19:30N 40°44' W 073°57'4 8.0
2017-Oct-17 19:00N 40°41' W 074°01'4 9.0
2017-Oct-17 18:30N 40°39' W 074°06'3 5.4
2017-Oct-17 18:00N 40°41' W 074°08'2 3.4
2017-Oct-17 17:30N 40°43' W 074°07'0 0.0
2017-Oct-17 17:01N 40°43' W 074°07'0 0.0
2017-Oct-17 16:30N 40°43' W 074°07'0 0.0
2017-Oct-17 16:00N 40°43' W 074°07'1 2.4
2017-Oct-17 15:31N 40°42' W 074°07'3 5.8
2017-Oct-17 15:00N 40°39' W 074°07'4 8.3
2017-Oct-17 14:30N 40°40' W 074°03'510.4
2017-Oct-17 14:01N 40°44' W 073°58'1 1.6
2017-Oct-17 13:30N 40°44' W 073°57'0 0.0
2017-Oct-17 13:00N 40°44' W 073°57'0 0.0
2017-Oct-17 12:30N 40°44' W 073°57'0 0.0
2017-Oct-17 12:00N 40°44' W 073°57'0 0.0
2017-Oct-17 11:30N 40°44' W 073°57'0 0.0
2017-Oct-17 11:00N 40°44' W 073°57'0 0.0
2017-Oct-17 10:30N 40°44' W 073°57'0 0.0
2017-Oct-17 10:00N 40°44' W 073°57'0 0.0
2017-Oct-17 09:29N 40°44' W 073°57'0 0.0
2017-Oct-17 09:00N 40°44' W 073°57'0 0.0
2017-Oct-17 08:30N 40°44' W 073°57'0 0.0
2017-Oct-17 08:00N 40°44' W 073°57'0 0.0
2017-Oct-17 07:30N 40°44' W 073°57'0 0.0
2017-Oct-17 07:00N 40°44' W 073°57'0 0.0
2017-Oct-17 06:30N 40°44' W 073°57'0 0.0
2017-Oct-17 06:00N 40°44' W 073°57'0 0.0
2017-Oct-17 05:30N 40°44' W 073°57'0 0.0
2017-Oct-17 04:59N 40°44' W 073°57'0 0.0
2017-Oct-17 04:30N 40°44' W 073°57'0 0.0
2017-Oct-17 04:00N 40°44' W 073°57'0 0.0
2017-Oct-17 03:30N 40°44' W 073°57'0 0.0
2017-Oct-17 03:00N 40°44' W 073°57'0 0.0
2017-Oct-17 02:30N 40°44' W 073°57'0 0.0
2017-Oct-17 01:58N 40°44' W 073°57'0 0.0
2017-Oct-17 01:17N 40°44' W 073°57'0 0.0
2017-Oct-17 01:00N 40°44' W 073°57'0 0.0
2017-Oct-17 00:30N 40°44' W 073°57'0 0.0
2017-Oct-16 23:59N 40°44' W 073°57'0 0.0
2017-Oct-16 23:30N 40°44' W 073°57'0 0.0
2017-Oct-16 23:00N 40°44' W 073°57'0 0.0
2017-Oct-16 22:30N 40°44' W 073°57'0 0.0
2017-Oct-16 21:59N 40°44' W 073°57'0 0.0
2017-Oct-16 21:30N 40°44' W 073°57'0 0.1
2017-Oct-16 20:59N 40°44' W 073°57'1 2.6
2017-Oct-16 20:30N 40°43' W 073°58'3 5.6
2017-Oct-16 20:00N 40°41' W 074°01'4 8.8
2017-Oct-16 19:30N 40°39' W 074°05'2 5.0
2017-Oct-16 19:00N 40°40' W 074°08'3 5.8
2017-Oct-16 18:30N 40°43' W 074°07'0 0.0
2017-Oct-16 18:00N 40°43' W 074°07'0 0.0
2017-Oct-16 17:30N 40°43' W 074°07'0 0.0
2017-Oct-16 17:00N 40°43' W 074°07'0 0.1
2017-Oct-16 16:30N 40°43' W 074°07'4 7.6
2017-Oct-16 16:00N 40°39' W 074°09'4 7.4
2017-Oct-16 15:31N 40°39' W 074°04'611.6
2017-Oct-16 15:00N 40°43' W 073°58'2 3.1
2017-Oct-16 14:30N 40°44' W 073°57'0 0.0
2017-Oct-16 13:30N 40°44' W 073°57'0 0.0
2017-Oct-16 12:57N 40°44' W 073°57'0 0.0
2017-Oct-16 12:30N 40°44' W 073°57'1 1.5
2017-Oct-16 12:00N 40°44' W 073°58'2 0.0
2017-Oct-14 21:15N 40°46' W 073°57'2 9.3
2017-Oct-14 21:00N 40°43' W 073°58'4 8.6
2017-Oct-14 20:30N 40°41' W 074°02'4 8.6
2017-Oct-14 19:59N 40°39' W 074°07'3 5.5
2017-Oct-14 19:30N 40°41' W 074°08'1 2.9
2017-Oct-14 19:00N 40°43' W 074°07'0 0.0
2017-Oct-14 18:30N 40°43' W 074°07'0 0.0
2017-Oct-14 18:00N 40°43' W 074°07'0 0.0
2017-Oct-14 17:29N 40°43' W 074°07'1 2.9
2017-Oct-14 17:00N 40°41' W 074°08'0 0.8
2017-Oct-14 16:29N 40°42' W 074°07'0 0.0
2017-Oct-14 16:00N 40°42' W 074°07'1 1.6
2017-Oct-14 15:30N 40°41' W 074°08'3 4.7
2017-Oct-14 14:56N 40°39' W 074°06'4 9.8
2017-Oct-14 14:30N 40°41' W 074°01'4 8.9
2017-Oct-14 14:00N 40°44' W 073°57'0 0.6
2017-Oct-14 13:30N 40°44' W 073°57'0 0.0
2017-Oct-14 13:00N 40°44' W 073°57'0 0.0
2017-Oct-14 12:30N 40°44' W 073°57'0 0.0
2017-Oct-14 11:58N 40°44' W 073°57'0 0.0
2017-Oct-14 11:30N 40°44' W 073°57'0 0.0
2017-Oct-14 11:00N 40°44' W 073°57'0 0.0
2017-Oct-14 10:27N 40°44' W 073°57'0 0.0
2017-Oct-14 09:57N 40°44' W 073°57'0 0.0
2017-Oct-14 09:31N 40°44' W 073°57'0 0.0
2017-Oct-14 08:59N 40°44' W 073°57'0 0.0
2017-Oct-14 08:30N 40°44' W 073°57'0 0.0
2017-Oct-14 08:00N 40°44' W 073°57'0 0.0
2017-Oct-14 07:28N 40°44' W 073°57'0 0.0
2017-Oct-14 07:01N 40°44' W 073°57'0 0.0
2017-Oct-14 06:30N 40°44' W 073°57'0 0.0
2017-Oct-14 05:59N 40°44' W 073°57'0 0.0
2017-Oct-14 05:30N 40°44' W 073°57'0 0.0
2017-Oct-14 05:00N 40°44' W 073°57'0 0.0
2017-Oct-14 04:29N 40°44' W 073°57'0 0.0
2017-Oct-14 03:49N 40°44' W 073°57'0 0.0
2017-Oct-14 03:30N 40°44' W 073°57'0 0.0
2017-Oct-14 02:59N 40°44' W 073°57'0 0.0
2017-Oct-14 02:30N 40°44' W 073°57'0 0.0
2017-Oct-14 02:00N 40°44' W 073°57'0 0.0
2017-Oct-14 01:29N 40°44' W 073°57'0 0.0
2017-Oct-14 00:59N 40°44' W 073°57'0 0.0
2017-Oct-14 00:19N 40°44' W 073°57'0 0.0
2017-Oct-13 23:51N 40°44' W 073°57'0 0.0
2017-Oct-13 23:29N 40°44' W 073°57'0 0.0
2017-Oct-13 22:58N 40°44' W 073°57'0 0.0
2017-Oct-13 22:00N 40°44' W 073°57'0 0.0
2017-Oct-13 21:29N 40°44' W 073°57'0 0.0
2017-Oct-13 20:59N 40°44' W 073°57'1 1.0
2017-Oct-13 20:29N 40°44' W 073°57'1 2.0
2017-Oct-13 20:00N 40°44' W 073°58'4 8.2
2017-Oct-13 19:30N 40°41' W 074°02'5 9.5
2017-Oct-13 19:00N 40°39' W 074°08'4 7.4
2017-Oct-13 18:30N 40°42' W 074°07'1 1.0
2017-Oct-13 18:00N 40°43' W 074°07'0 0.0
2017-Oct-13 17:30N 40°43' W 074°07'0 0.0
2017-Oct-13 17:00N 40°43' W 074°07'0 0.0
2017-Oct-13 16:30N 40°43' W 074°07'2 3.2
2017-Oct-13 16:00N 40°41' W 074°08'1 1.2
2017-Oct-13 15:30N 40°41' W 074°08'2 3.9
2017-Oct-13 15:00N 40°39' W 074°07'510.0
2017-Oct-13 14:30N 40°41' W 074°01'4 8.6
2017-Oct-13 14:00N 40°44' W 073°57'1 1.0
2017-Oct-13 13:30N 40°44' W 073°57'0 0.0
2017-Oct-13 13:00N 40°44' W 073°57'0 0.0
2017-Oct-13 12:30N 40°44' W 073°57'0 0.0
2017-Oct-13 12:00N 40°44' W 073°57'0 0.0
2017-Oct-13 11:30N 40°44' W 073°57'0 0.0
2017-Oct-13 11:00N 40°44' W 073°57'0 0.0
2017-Oct-13 10:30N 40°44' W 073°57'0 0.0
2017-Oct-13 10:00N 40°44' W 073°57'0 0.0
2017-Oct-13 09:30N 40°44' W 073°57'0 0.0
2017-Oct-13 09:00N 40°44' W 073°57'0 0.0
2017-Oct-13 08:30N 40°44' W 073°57'0 0.0
2017-Oct-13 08:00N 40°44' W 073°57'0 0.0
2017-Oct-13 07:30N 40°44' W 073°57'0 0.0
2017-Oct-13 07:00N 40°44' W 073°57'0 0.0
2017-Oct-13 06:30N 40°44' W 073°57'0 0.0
2017-Oct-13 06:00N 40°44' W 073°57'0 0.0
2017-Oct-13 05:30N 40°44' W 073°57'0 0.0
2017-Oct-13 05:00N 40°44' W 073°57'0 0.0
2017-Oct-13 04:29N 40°44' W 073°57'0 0.0
2017-Oct-13 04:00N 40°44' W 073°57'0 0.0
2017-Oct-13 03:30N 40°44' W 073°57'0 0.0
2017-Oct-13 03:00N 40°44' W 073°57'0 0.0
2017-Oct-13 02:30N 40°44' W 073°57'0 0.0
2017-Oct-13 02:00N 40°44' W 073°57'0 0.0
2017-Oct-13 01:29N 40°44' W 073°57'0 0.0
2017-Oct-13 01:00N 40°44' W 073°57'0 0.0
2017-Oct-13 00:30N 40°44' W 073°57'0 0.0
2017-Oct-13 00:00N 40°44' W 073°57'0 0.0
2017-Oct-12 23:30N 40°44' W 073°57'0 0.0
2017-Oct-12 23:00N 40°44' W 073°57'0 0.0
2017-Oct-12 22:29N 40°44' W 073°57'0 0.0
2017-Oct-12 21:58N 40°44' W 073°57'0 0.0
2017-Oct-12 21:30N 40°44' W 073°57'0 0.0
2017-Oct-12 21:00N 40°44' W 073°57'0 0.0
2017-Oct-12 20:30N 40°44' W 073°57'0 0.8
2017-Oct-12 20:00N 40°44' W 073°57'1 2.8
2017-Oct-12 19:30N 40°43' W 073°58'2 3.5
2017-Oct-12 19:00N 40°42' W 074°00'5 9.8
2017-Oct-12 18:29N 40°39' W 074°05'3 5.3
2017-Oct-12 18:00N 40°40' W 074°09'3 6.1
2017-Oct-12 17:30N 40°43' W 074°07'0 0.0
2017-Oct-12 17:00N 40°43' W 074°07'0 0.0
2017-Oct-12 16:30N 40°43' W 074°07'0 0.0
2017-Oct-12 16:00N 40°43' W 074°07'1 1.5
2017-Oct-12 15:30N 40°42' W 074°07'3 6.8
2017-Oct-12 15:00N 40°39' W 074°07'5 9.6
2017-Oct-12 14:30N 40°41' W 074°02'4 8.2
2017-Oct-12 14:00N 40°44' W 073°58'1 2.0
2017-Oct-12 13:30N 40°44' W 073°57'0 0.0
2017-Oct-12 12:59N 40°44' W 073°57'0 0.0
2017-Oct-12 12:30N 40°44' W 073°57'0 0.0
2017-Oct-12 12:00N 40°44' W 073°57'0 0.0
2017-Oct-12 11:30N 40°44' W 073°57'0 0.0
2017-Oct-12 10:59N 40°44' W 073°57'0 0.0
2017-Oct-12 10:30N 40°44' W 073°57'0 0.0
2017-Oct-12 10:00N 40°44' W 073°57'0 0.0
2017-Oct-12 09:29N 40°44' W 073°57'0 0.0
2017-Oct-12 09:00N 40°44' W 073°57'0 0.0
2017-Oct-12 08:30N 40°44' W 073°57'0 0.0
2017-Oct-12 08:00N 40°44' W 073°57'0 0.0
2017-Oct-12 07:30N 40°44' W 073°57'0 0.0
2017-Oct-12 07:00N 40°44' W 073°57'0 0.0
2017-Oct-12 06:30N 40°44' W 073°57'0 0.0
2017-Oct-12 06:00N 40°44' W 073°57'0 0.0
2017-Oct-12 05:30N 40°44' W 073°57'0 0.0
2017-Oct-12 05:00N 40°44' W 073°57'0 0.0
2017-Oct-12 04:29N 40°44' W 073°57'0 0.0
2017-Oct-12 03:59N 40°44' W 073°57'0 0.0
2017-Oct-12 03:30N 40°44' W 073°57'0 0.0
2017-Oct-12 03:00N 40°44' W 073°57'0 0.0
2017-Oct-12 02:30N 40°44' W 073°57'0 0.0
2017-Oct-12 02:00N 40°44' W 073°57'0 0.0
2017-Oct-12 01:30N 40°44' W 073°57'0 0.0
2017-Oct-12 01:00N 40°44' W 073°57'0 0.0
2017-Oct-12 00:30N 40°44' W 073°57'0 0.0
2017-Oct-12 00:00N 40°44' W 073°57'0 0.0
2017-Oct-11 23:30N 40°44' W 073°57'0 0.0
2017-Oct-11 23:00N 40°44' W 073°57'0 0.0
2017-Oct-11 22:30N 40°44' W 073°57'0 0.0
2017-Oct-11 22:00N 40°44' W 073°57'0 0.0
2017-Oct-11 21:30N 40°44' W 073°57'0 0.0
2017-Oct-11 20:59N 40°44' W 073°57'0 0.0
2017-Oct-11 20:30N 40°44' W 073°57'0 0.0
2017-Oct-11 20:00N 40°44' W 073°57'1 1.8
2017-Oct-11 19:30N 40°44' W 073°58'4 8.6
2017-Oct-11 19:00N 40°41' W 074°02'510.2
2017-Oct-11 18:28N 40°39' W 074°08'4 9.1
2017-Oct-11 18:00N 40°43' W 074°07'0 0.1
2017-Oct-11 17:30N 40°43' W 074°07'0 0.0
2017-Oct-11 17:00N 40°43' W 074°07'8 0.5
2017-Oct-11 00:00N 40°44' W 073°57'0 0.0
2017-Oct-10 23:30N 40°44' W 073°57'0 0.0
2017-Oct-10 23:00N 40°44' W 073°57'0 0.0
2017-Oct-10 22:29N 40°44' W 073°57'0 0.0
2017-Oct-10 22:00N 40°44' W 073°57'0 0.0
2017-Oct-10 21:30N 40°44' W 073°57'0 0.0
2017-Oct-10 21:00N 40°44' W 073°57'0 0.0
2017-Oct-10 20:30N 40°44' W 073°57'0 0.0
2017-Oct-10 20:00N 40°44' W 073°57'2 3.1
2017-Oct-10 19:30N 40°43' W 073°58'4 8.4
2017-Oct-10 19:00N 40°40' W 074°02'510.5
2017-Oct-10 18:30N 40°38' W 074°09'4 8.7
2017-Oct-10 18:00N 40°43' W 074°07'0 0.0
2017-Oct-10 17:30N 40°43' W 074°07'0 0.0
2017-Oct-10 17:00N 40°43' W 074°07'0 0.0
2017-Oct-10 16:30N 40°43' W 074°07'0 0.1
2017-Oct-10 16:00N 40°43' W 074°07'  

Dump ship's entire track history